Погода в Муроме

Россия / Владимирская область     55°34′45″N   42°03′08″E
темп.,
°C
ветер,
м/с
пор.,
м/с
влажн.,
%
обл.,
%
осадки,
мм/ч
давл.,
гПа
погр.,
м
20 сентября, пн
пн2000:00+6в51254100 0.0 1022523
03:00+5в61369100 0.8 1022590
06:00+4в61581100 2.1 1022613
09:00+4в61588100 5.3 1022629
12:00+5в71588100 1.8 1022720
15:00+6в81586100 2.4 1022856
18:00+6вюв81586100 0.9 1021896
21:00+6вюв71486100 1.3 1021988
21 сентября, вт
вт2100:00+6в71488100 2.3 1020839
03:00+6в71391100 4.1 1019808
06:00+6в61390100 1.2 1018775
09:00+6в61391100 1.8 1017708
12:00+6в51192100 1.8 1017650
15:00+6в51192100 3.3 1016621
18:00+6в51293100 0.4 1015603
21:00+6в51293100 2.9 1014522
22 сентября, ср
ср2200:00+7в51094100 0.3 1013460
03:00+6всв41096100 4.0 1012587
06:00+6всв4995100 1.1 1011624
09:00+6всв4896100 1.7 1011555
12:00+8вюв3592100 0.1 1012481
15:00+9всв2492100 0.2 1012327
18:00+9св379695 0.1 1013204
21:00+9св379756 0.6 1013227
23 сентября, чт
чт2300:00+7юв389999 0.0 1014261
03:00+8ю379367 0.0 1015348
06:00+6ююв2693100 0.0 1017173
09:00+8юв3689100 0.0 1017284
12:00+12юв3468100 0.0 1017970
15:00+10юв2382100 0.3 101791
18:00+9ссв1193100 1.1 101629
21:00+9юз0194100 1.4 101612
24 сентября, пт
пт2400:00+9ю2293100 0.1 101654
03:00+7ю229588 0.1 101627
06:00+6юв2296100 0.0 101540
09:00+9ююв2495100 1.3 1014191
12:00+8ююв2396100 2.6 1013199
15:00+8ююв1195100 3.2 101284
18:00+8юв2494100 0.1 1011112
21:00+7ю249597 0.1 101180